Погода в Степановке

Украина / Винницкая область     49°07′49″N   28°45′56″E
темп.,
°C
ветер,
м/с
пор.,
м/с
влажн.,
%
обл.,
%
осадки,
мм/ч
давл.,
гПа
погр.,
м
13 мая, чт
чт1300:00+7вюв338834 0.0 101245
03:00+6ююв349197 0.0 101160
06:00+5ююв369388 0.0 1010140
09:00+10ююв687044 0.0 1009670
12:00+10ююв71178100 0.1 1009692
15:00+9юв71587100 0.7 1008703
18:00+13ю81279100 0.0 1007833
21:00+10ююв61289100 0.1 1008496
14 мая, пт
пт1400:00+10юв6149088 0.9 1007524
03:00+8ююв5128940 0.9 1007306
06:00+7юв399273 0.0 1007198
09:00+12ююв467211 0.0 1006366
12:00+16ююв5663100 0.1 1006931
15:00+13ю4578100 0.1 1007498
18:00+11юз2489100 0.3 1007218
21:00+11ююз3593100 0.4 100792
15 мая, сб
сб1500:00+11юз3596100 1.1 1008147
03:00+11зюз3596100 1.1 1009144
06:00+10юз3693100 0.0 1010159
09:00+12зюз5981100 0.0 1011605
12:00+13зюз4682100 0.0 1013574
15:00+14з347681 0.1 1013489
18:00+17юз236414 0.3 10121055
21:00+13ююв00806 0.4 101210
16 мая, вс
вс1600:00+11вюв11837 0.0 101210
03:00+10юв33905 0.0 101331
06:00+10вюв349027 0.0 101357
09:00+16юв46749 0.0 1013376
12:00+20юв5661100 0.3 10121169
15:00+21юв5655100 0.4 10111766
18:00+20юв4663100 0.3 1010810
21:00+16вюв3378100 0.6 101027
17 мая, пн
пн1700:00+15вюв3582100 0.0 100995
03:00+14юв1192100 1.9 100918
06:00+14зюз2290100 0.9 100932
09:00+14всв2396100 2.9 100981
12:00+14с3694100 1.1 1008385
15:00+14с4693100 2.8 1008420
18:00+15ссз3484100 0.4 1008484
21:00+12зсз11926 0.4 100810